Tervuren Meer informatie Tervuren


Bezoek onze andere website:

Meteotemplate

Home Weather Station

Saratoga


U vindt ons ook hier:

UK Metoffice

European Weather Network

WeatherCloud

Weather Underground

Benelux Weer Netwerk

AWEKAS

Citizen Weather Observer Program (CWOP)


Apparatuur in gebruik:

Davis VP2

Meteobridge


Select another period ( hide this area )

Eenheden Periode Custom range Directly to
Metrisch Engels Beide
Dagelijkse Wekelijkse Maandelijkse Jaarlijkse
use both date-selectors for a custom range
previous Dag
With this date

WeatherUnderground graphs for this period ( click here )


Dagelijkse Samenvatting Vrijdag 25 mei 2018
Tijd Temp. ( °C ) Dew pt. ( °C ) Wind ( km/h ) van Windvlaag ( km/h ) Luchtdruk ( hPa ) Humid.( % ) Rainrate ( cm )
Hoog26,8 18,8 6,9 ZZO ( 24/113 ) 8,0 1017,2 96 -
Gemiddeld19,0 15,7 0,8 Kalm #91/135 -117,4 1016,5 82 -5079,40
Laag11,7 10,9 -   -1607,4 1015,8 49 -2539,70
Dagelijkse Tabular details for Vrijdag 25 mei 2018
Tijd Temp. ( °C ) Dew pt. ( °C ) Wind ( km/h ) van Windvlaag ( km/h ) Luchtdruk ( hPa ) Humid.( % ) Rainrate ( cm )
00:02 15,8 14,8   Kalm   1016,5 94 -
00:07 15,8 14,8   Kalm   1016,1 94 -
00:12 15,9 15,1   Kalm   1016,1 95 -
00:18 16,0 15,2   Kalm   1016,1 95 -
00:24 15,9 15,1   Kalm   1016,1 95 -
00:29 15,8 14,8   Kalm   1016,1 94 -
00:34 15,7 14,7   Kalm   1016,1 94 -
00:40 15,6 14,6   Kalm   1016,1 94 -
00:45 15,5 14,5   Kalm   1015,8 94 -
00:51 15,3 14,3   Kalm   1016,1 94 -
00:56 15,2 14,2   Kalm   1016,1 94 -
01:02 15,1 14,1   Kalm   1016,1 94 -
01:07 15,1 14,1   Kalm   1015,8 94 -
01:12 15,0 14,0   Kalm   1015,8 94 -
01:19 14,8 13,8   Kalm   1016,1 94 -
01:24 14,7 13,6   Kalm   1016,1 93 -
01:29 14,5 13,5   Kalm   1015,8 94 -
01:35 14,4 13,4   Kalm   1015,8 94 -
01:41 14,4 13,4   Kalm   1015,8 94 -
01:46 14,2 13,2   Kalm   1015,8 94 -
01:51 14,1 13,1   Kalm   1015,8 94 -
01:57 14,0 13,0   Kalm   1015,8 94 -
02:03 13,9 12,9   Kalm   1015,8 94 -
02:08 13,8 12,9   Kalm   1016,1 94 -
02:13 13,7 12,8   Kalm   1015,8 94 -
02:18 13,6 12,7   Kalm   1015,8 94 -
02:23 13,5 12,6   Kalm   1015,8 94 -
02:28 13,4 12,5   Kalm   1015,8 94 -
02:33 13,4 12,5   Kalm   1015,8 94 -
02:39 13,4 12,5   Kalm   1015,8 94 -
02:45 13,5 12,6   Kalm   1015,8 94 -
02:50 13,4 12,5   Kalm   1015,8 94 -
02:55 13,3 12,4   Kalm   1015,8 94 -
03:01 13,3 12,4   Kalm   1015,8 94 -
03:06 13,2 12,3   Kalm   1015,8 94 -
03:11 13,2 12,3   Kalm   1015,8 94 -
03:16 13,1 12,2   Kalm   1015,8 94 -
03:22 13,1 12,2   Kalm -1607,4 1015,8 94 -
03:38 12,8 11,9   Kalm   1015,8 94 -2539,70
03:43 12,8 11,9   Kalm -1607,4 1016,1 94 -2539,70
04:33 12,1 11,2   Kalm   1016,1 94 -
04:38 12,1 11,2   Kalm -1607,4 1016,1 94 -
04:58 11,9 11,0   Kalm   1016,1 94 -2539,70
05:03 11,8 10,9   Kalm   1016,1 94 -2539,70
05:08 11,8 10,9   Kalm -1607,4 1016,1 94 -2539,70
05:43 11,7 10,9   Kalm   1016,1 95 -
05:48 11,7 10,9   Kalm -1607,4 1016,1 95 -
06:40 12,2 11,4   Kalm   1016,1 95 -
06:45 12,4 11,6   Kalm   1016,1 95 -
06:50 12,8 12,0   Kalm   1016,5 95 -
06:55 12,8 12,0   Kalm -1607,4 1016,5 95 -
07:41 14,5 13,7   Kalm   1016,5 95 -2539,70
07:46 14,7 13,9   Kalm   1016,8 95 -
07:51 15,1 14,5   Kalm   1016,8 96 -
07:57 15,6 15,0   Kalm   1016,5 96 -
08:02 16,1 15,5   Kalm   1016,8 96 -
08:07 16,6 16,0   Kalm   1016,8 96 -
08:13 16,9 16,3 5,0 OZO 5,0 1016,8 96 -
08:18 16,9 16,3   Kalm 3,2 1016,8 96 -
08:23 16,9 15,9 3,2 ZZO 3,2 1016,8 94 -
08:29 17,2 16,2   Kalm 1,6 1016,8 94 -
08:34 17,5 16,2 1,8 ZZO 3,2 1016,8 92 -
08:39 17,7 16,2 1,8 ZZO 3,2 1016,8 91 -
08:44 18,0 16,5   Kalm 1,6 1016,8 91 -
08:49 18,3 16,5   Kalm 1,6 1016,8 89 -
08:55 18,7 16,5 1,8 ZZO 3,2 1016,8 87 -
09:00 18,9 16,5 1,8 ZO 3,2 1016,8 86 -
09:05 19,3 17,1 1,8 ZO 3,2 1016,8 87 -
09:11 19,7 17,1 3,2 ZO 3,2 1016,8 85 -
09:16 20,1 17,3   Kalm 3,2 1016,8 84 -
09:21 20,4 17,2 1,8 ZZO 3,2 1016,8 82 -
09:26 20,7 17,7 1,8 ZZO 1,8 1016,8 83 -
09:32 20,8 17,6 6,9 ZZW 6,9 1016,8 82 -
09:37 20,8 17,4 1,8 ZZW 3,2 1017,2 81 -
09:42 20,9 17,7 1,8 Zuiden 4,8 1016,8 82 -
09:47 21,0 17,6 1,8 ZZO 3,2 1017,2 81 -
09:52 21,0 17,6   Kalm 4,8 1016,8 81 -
09:57 21,1 17,9   Kalm   1016,8 82 -
10:03 21,1 17,5   Kalm   1016,8 80 -
10:08 21,3 17,3 1,8 ZZW 4,8 1016,8 78 -
10:13 21,6 17,4   Kalm 1,6 1016,8 77 -
10:18 21,8 17,4   Kalm 1,6 1016,8 76 -
10:24 22,0 18,8 1,8 ZZO 3,2 1016,8 82 -
10:29 22,3 17,9 3,2 NO 4,8 1016,8 76 -
10:34 22,7 18,2 1,8 ONO 3,2 1016,8 76 -
10:39 22,7 18,2 3,2 ZZO 3,2 1016,8 76 -
10:44 22,7 18,0 1,8 ZZO 3,2 1016,8 75 -
10:50 22,8 18,1 1,8 Oosten 3,2 1016,8 75 -
10:55 22,9 18,4   Kalm   1016,8 76 -
11:00 23,2 18,5   Kalm   1016,8 75 -
11:05 23,2 18,3 3,2 OZO 4,8 1016,8 74 -
11:10 23,0 18,1   Kalm 4,8 1016,8 74 -
11:15 22,8 17,7 1,8 ZO 4,8 1016,8 73 -
11:21 22,8 18,1   Kalm 4,8 1016,8 75 -
11:26 22,9 18,0 1,8 Oosten 4,8 1016,8 74 -
11:31 22,9 18,2   Kalm 4,8 1016,8 75 -
11:36 22,9 17,8   Kalm 3,2 1017,2 73 -
11:41 22,9 18,0   Kalm   1016,8 74 -
11:46 23,1 18,0   Kalm   1016,8 73 -
11:52 23,0 18,1 1,8 NNW 3,2 1016,8 74 -
11:57 23,2 18,5 1,8 ZZW 1,8 1017,2 75 -
12:02 23,4 18,3   Kalm   1017,2 73 -
12:07 23,6 18,3   Kalm   1017,2 72 -
12:12 23,8 18,0 1,8 ZW 4,8 1017,2 70 -
12:17 23,9 18,3   Kalm   1016,8 71 -
12:23 24,0 18,0 5,0 NO 5,0 1017,2 69 -
12:28 23,9 17,6   Kalm 3,2 1016,8 68 -
12:33 24,1 17,8 1,8 Zuiden 8,0 1017,2 68 -
12:38 24,2 17,7   Kalm 3,2 1017,2 67 -
12:43 24,4 17,1   Kalm   1016,8 64 -
12:49 24,4 18,6   Kalm 3,2 1016,8 70 -
12:54 24,6 18,8   Kalm 1,6 1016,8 70 -
12:59 24,5 17,5 1,8 ONO 4,8 1016,8 65 -
13:04 24,5 18,0 5,0 ZO 5,0 1016,8 67 -
13:09 24,7 18,6 1,8 OZO 1,8 1016,8 69 -
13:14 24,8 17,5 5,0 Zuiden 5,0 1016,8 64 -
13:20 24,9 17,6   Kalm 4,8 1016,8 64 -
13:25 25,1 18,3 1,8 Zuiden 4,8 1016,8 66 -
13:30 25,2 17,4 5,0 ONO 5,0 1016,8 62 -
13:35 25,2 17,4 3,2 ZO 4,8 1016,8 62 -
13:41 25,3 17,0 1,8 ZO 1,8 1016,5 60 -
13:46 25,3 18,5 1,8 ZZO 3,2 1016,5 66 -
13:51 25,1 17,0 1,8 ZZW 6,4 1016,8 61 -
13:56 24,8 17,3 1,8 NW 4,8 1016,5 63 -
14:01 24,9 17,1   Kalm 1,6 1016,8 62 -
14:06 25,3 16,7   Kalm 3,2 1016,8 59 -
14:11 25,3 16,7   Kalm   1016,5 59 -
14:16 25,3 16,7   Kalm -1607,4 1016,5 59 -
14:27 25,8 17,2 3,2 Oosten 3,2 1016,5 59 -
14:33 25,9 17,3 3,2 OZO -1607,4 1016,5 59 -
14:38 25,9 17,3 3,2 OZO -1607,4 1016,8 59 -
15:03 25,3 16,7   Kalm   1016,8 59 -
15:08 25,3 16,7   Kalm -1607,4 1016,8 59 -
16:25 26,6 17,1   Kalm 1,6 1016,8 56 -
16:30 26,8 15,2 1,8 ZZO 4,8 1016,8 49 -
Dagelijkse Samenvatting Vrijdag 25 mei 2018
Tijd Temp. ( °C ) Dew pt. ( °C ) Wind ( km/h ) van Windvlaag ( km/h ) Luchtdruk ( hPa ) Humid.( % ) Rainrate ( cm )
Hoog26,8 18,8 6,9 ZZO ( 24/113 ) 8,0 1017,2 96 -
Gemiddeld19,0 15,7 0,8 Kalm #91/135 -117,4 1016,5 82 -5079,40
Laag11,7 10,9 -   -1607,4 1015,8 49 -2539,70
Dagelijkse Tabular details for Vrijdag 25 mei 2018
Tijd Temp. ( °C ) Dew pt. ( °C ) Wind ( km/h ) van Windvlaag ( km/h ) Luchtdruk ( hPa ) Humid.( % ) Rainrate ( cm )
00:02 15,8 14,8   Kalm   1016,5 94 -
00:07 15,8 14,8   Kalm   1016,1 94 -
00:12 15,9 15,1   Kalm   1016,1 95 -
00:18 16,0 15,2   Kalm   1016,1 95 -
00:24 15,9 15,1   Kalm   1016,1 95 -
00:29 15,8 14,8   Kalm   1016,1 94 -
00:34 15,7 14,7   Kalm   1016,1 94 -
00:40 15,6 14,6   Kalm   1016,1 94 -
00:45 15,5 14,5   Kalm   1015,8 94 -
00:51 15,3 14,3   Kalm   1016,1 94 -
00:56 15,2 14,2   Kalm   1016,1 94 -
01:02 15,1 14,1   Kalm   1016,1 94 -
01:07 15,1 14,1   Kalm   1015,8 94 -
01:12 15,0 14,0   Kalm   1015,8 94 -
01:19 14,8 13,8   Kalm   1016,1 94 -
01:24 14,7 13,6   Kalm   1016,1 93 -
01:29 14,5 13,5   Kalm   1015,8 94 -
01:35 14,4 13,4   Kalm   1015,8 94 -
01:41 14,4 13,4   Kalm   1015,8 94 -
01:46 14,2 13,2   Kalm   1015,8 94 -
01:51 14,1 13,1   Kalm   1015,8 94 -
01:57 14,0 13,0   Kalm   1015,8 94 -
02:03 13,9 12,9   Kalm   1015,8 94 -
02:08 13,8 12,9   Kalm   1016,1 94 -
02:13 13,7 12,8   Kalm   1015,8 94 -
02:18 13,6 12,7   Kalm   1015,8 94 -
02:23 13,5 12,6   Kalm   1015,8 94 -
02:28 13,4 12,5   Kalm   1015,8 94 -
02:33 13,4 12,5   Kalm   1015,8 94 -
02:39 13,4 12,5   Kalm   1015,8 94 -
02:45 13,5 12,6   Kalm   1015,8 94 -
02:50 13,4 12,5   Kalm   1015,8 94 -
02:55 13,3 12,4   Kalm   1015,8 94 -
03:01 13,3 12,4   Kalm   1015,8 94 -
03:06 13,2 12,3   Kalm   1015,8 94 -
03:11 13,2 12,3   Kalm   1015,8 94 -
03:16 13,1 12,2   Kalm   1015,8 94 -
03:22 13,1 12,2   Kalm -1607,4 1015,8 94 -
03:38 12,8 11,9   Kalm   1015,8 94 -2539,70
03:43 12,8 11,9   Kalm -1607,4 1016,1 94 -2539,70
04:33 12,1 11,2   Kalm   1016,1 94 -
04:38 12,1 11,2   Kalm -1607,4 1016,1 94 -
04:58 11,9 11,0   Kalm   1016,1 94 -2539,70
05:03 11,8 10,9   Kalm   1016,1 94 -2539,70
05:08 11,8 10,9   Kalm -1607,4 1016,1 94 -2539,70
05:43 11,7 10,9   Kalm   1016,1 95 -
05:48 11,7 10,9   Kalm -1607,4 1016,1 95 -
06:40 12,2 11,4   Kalm   1016,1 95 -
06:45 12,4 11,6   Kalm   1016,1 95 -
06:50 12,8 12,0   Kalm   1016,5 95 -
06:55 12,8 12,0   Kalm -1607,4 1016,5 95 -
07:41 14,5 13,7   Kalm   1016,5 95 -2539,70
07:46 14,7 13,9   Kalm   1016,8 95 -
07:51 15,1 14,5   Kalm   1016,8 96 -
07:57 15,6 15,0   Kalm   1016,5 96 -
08:02 16,1 15,5   Kalm   1016,8 96 -
08:07 16,6 16,0   Kalm   1016,8 96 -
08:13 16,9 16,3 5,0 OZO 5,0 1016,8 96 -
08:18 16,9 16,3   Kalm 3,2 1016,8 96 -
08:23 16,9 15,9 3,2 ZZO 3,2 1016,8 94 -
08:29 17,2 16,2   Kalm 1,6 1016,8 94 -
08:34 17,5 16,2 1,8 ZZO 3,2 1016,8 92 -
08:39 17,7 16,2 1,8 ZZO 3,2 1016,8 91 -
08:44 18,0 16,5   Kalm 1,6 1016,8 91 -
08:49 18,3 16,5   Kalm 1,6 1016,8 89 -
08:55 18,7 16,5 1,8 ZZO 3,2 1016,8 87 -
09:00 18,9 16,5 1,8 ZO 3,2 1016,8 86 -
09:05 19,3 17,1 1,8 ZO 3,2 1016,8 87 -
09:11 19,7 17,1 3,2 ZO 3,2 1016,8 85 -
09:16 20,1 17,3   Kalm 3,2 1016,8 84 -
09:21 20,4 17,2 1,8 ZZO 3,2 1016,8 82 -
09:26 20,7 17,7 1,8 ZZO 1,8 1016,8 83 -
09:32 20,8 17,6 6,9 ZZW 6,9 1016,8 82 -
09:37 20,8 17,4 1,8 ZZW 3,2 1017,2 81 -
09:42 20,9 17,7 1,8 Zuiden 4,8 1016,8 82 -
09:47 21,0 17,6 1,8 ZZO 3,2 1017,2 81 -
09:52 21,0 17,6   Kalm 4,8 1016,8 81 -
09:57 21,1 17,9   Kalm   1016,8 82 -
10:03 21,1 17,5   Kalm   1016,8 80 -
10:08 21,3 17,3 1,8 ZZW 4,8 1016,8 78 -
10:13 21,6 17,4   Kalm 1,6 1016,8 77 -
10:18 21,8 17,4   Kalm 1,6 1016,8 76 -
10:24 22,0 18,8 1,8 ZZO 3,2 1016,8 82 -
10:29 22,3 17,9 3,2 NO 4,8 1016,8 76 -
10:34 22,7 18,2 1,8 ONO 3,2 1016,8 76 -
10:39 22,7 18,2 3,2 ZZO 3,2 1016,8 76 -
10:44 22,7 18,0 1,8 ZZO 3,2 1016,8 75 -
10:50 22,8 18,1 1,8 Oosten 3,2 1016,8 75 -
10:55 22,9 18,4   Kalm   1016,8 76 -
11:00 23,2 18,5   Kalm   1016,8 75 -
11:05 23,2 18,3 3,2 OZO 4,8 1016,8 74 -
11:10 23,0 18,1   Kalm 4,8 1016,8 74 -
11:15 22,8 17,7 1,8 ZO 4,8 1016,8 73 -
11:21 22,8 18,1   Kalm 4,8 1016,8 75 -
11:26 22,9 18,0 1,8 Oosten 4,8 1016,8 74 -
11:31 22,9 18,2   Kalm 4,8 1016,8 75 -
11:36 22,9 17,8   Kalm 3,2 1017,2 73 -
11:41 22,9 18,0   Kalm   1016,8 74 -
11:46 23,1 18,0   Kalm   1016,8 73 -
11:52 23,0 18,1 1,8 NNW 3,2 1016,8 74 -
11:57 23,2 18,5 1,8 ZZW 1,8 1017,2 75 -
12:02 23,4 18,3   Kalm   1017,2 73 -
12:07 23,6 18,3   Kalm   1017,2 72 -
12:12 23,8 18,0 1,8 ZW 4,8 1017,2 70 -
12:17 23,9 18,3   Kalm   1016,8 71 -
12:23 24,0 18,0 5,0 NO 5,0 1017,2 69 -
12:28 23,9 17,6   Kalm 3,2 1016,8 68 -
12:33 24,1 17,8 1,8 Zuiden 8,0 1017,2 68 -
12:38 24,2 17,7   Kalm 3,2 1017,2 67 -
12:43 24,4 17,1   Kalm   1016,8 64 -
12:49 24,4 18,6   Kalm 3,2 1016,8 70 -
12:54 24,6 18,8   Kalm 1,6 1016,8 70 -
12:59 24,5 17,5 1,8 ONO 4,8 1016,8 65 -
13:04 24,5 18,0 5,0 ZO 5,0 1016,8 67 -
13:09 24,7 18,6 1,8 OZO 1,8 1016,8 69 -
13:14 24,8 17,5 5,0 Zuiden 5,0 1016,8 64 -
13:20 24,9 17,6   Kalm 4,8 1016,8 64 -
13:25 25,1 18,3 1,8 Zuiden 4,8 1016,8 66 -
13:30 25,2 17,4 5,0 ONO 5,0 1016,8 62 -
13:35 25,2 17,4 3,2 ZO 4,8 1016,8 62 -
13:41 25,3 17,0 1,8 ZO 1,8 1016,5 60 -
13:46 25,3 18,5 1,8 ZZO 3,2 1016,5 66 -
13:51 25,1 17,0 1,8 ZZW 6,4 1016,8 61 -
13:56 24,8 17,3 1,8 NW 4,8 1016,5 63 -
14:01 24,9 17,1   Kalm 1,6 1016,8 62 -
14:06 25,3 16,7   Kalm 3,2 1016,8 59 -
14:11 25,3 16,7   Kalm   1016,5 59 -
14:16 25,3 16,7   Kalm -1607,4 1016,5 59 -
14:27 25,8 17,2 3,2 Oosten 3,2 1016,5 59 -
14:33 25,9 17,3 3,2 OZO -1607,4 1016,5 59 -
14:38 25,9 17,3 3,2 OZO -1607,4 1016,8 59 -
15:03 25,3 16,7   Kalm   1016,8 59 -
15:08 25,3 16,7   Kalm -1607,4 1016,8 59 -
16:25 26,6 17,1   Kalm 1,6 1016,8 56 -
16:30 26,8 15,2 1,8 ZZO 4,8 1016,8 49 -

Download your copy of this data-set  here

Our weather-data as stored at Weather Underground. Script ontwikkeld door Jim McMurry. Aangepast voor de template door Leuven-Template.eu